GFSSGP_925_thetae_057.txt.gz
Theta_e
319 317 318 321 318 313 316 317 317 318 319 319 318 319 323 330 341 343 338 333 326 323 325 322 322 325 327 327 327 328 330 332 334 333 333 334 333 332 329 328 324 319 315 314 314 312 312 312 312
320 321 319 314 316 316 314 315 318 317 318 317 318 320 328 336 339 342 340 330 326 321 324 319 319 321 322 324 323 325 328 329 330 330 330 330 330 329 326 324 320 315 314 314 312 312 314 315 315
324 324 316 318 314 316 316 317 319 318 317 318 318 321 334 341 340 341 340 331 326 321 324 318 317 318 319 321 321 322 325 326 327 328 329 328 328 327 325 323 318 315 314 313 313 314 315 317 320
325 324 319 323 321 316 317 317 316 317 318 318 319 320 335 338 340 341 338 334 325 321 325 318 317 317 318 319 319 320 321 322 324 325 326 326 325 324 324 321 317 314 314 313 313 315 316 319 322
329 322 326 320 320 318 318 317 317 317 317 317 318 320 338 336 339 342 339 331 322 323 324 317 317 317 318 318 319 319 320 321 320 322 323 323 322 323 323 321 317 315 314 313 314 316 317 321 322
328 320 324 326 320 322 321 320 319 317 318 319 319 321 337 339 342 341 337 328 323 322 320 318 317 317 317 318 319 319 320 320 320 321 322 322 321 321 322 322 318 315 314 314 315 316 319 321 324
329 320 324 323 324 324 322 320 321 321 321 322 320 324 333 342 343 339 334 332 329 326 321 318 317 316 316 317 318 319 319 320 320 320 320 322 320 320 322 321 319 316 314 314 315 318 321 321 324
325 327 330 325 325 324 325 325 322 324 325 322 320 322 326 334 343 336 334 333 331 329 323 319 317 316 316 316 317 318 319 319 319 319 319 319 320 321 323 321 321 317 315 314 314 319 323 324 325
320 329 332 330 328 327 325 325 325 325 325 324 322 322 323 340 342 338 335 333 332 329 325 319 317 317 317 318 319 317 317 318 318 318 319 319 320 324 325 322 321 318 316 314 314 317 321 326 326
316 321 328 328 327 327 326 325 324 325 324 324 324 324 324 335 339 339 337 336 336 333 327 320 318 318 317 319 321 320 318 319 318 318 319 320 320 323 322 323 322 319 316 315 314 314 320 326 327
313 319 322 323 322 323 323 323 322 323 323 323 323 323 323 323 329 334 335 340 338 336 334 328 322 318 318 319 319 317 318 317 318 318 318 319 320 323 323 323 321 318 317 316 315 315 319 322 325
311 312 316 317 318 319 319 320 320 321 321 322 322 322 322 322 321 322 328 337 343 340 337 331 325 320 319 320 319 318 317 318 316 316 316 318 319 320 320 319 319 318 318 316 316 318 318 321 322
310 310 311 312 312 313 317 319 320 320 320 321 321 322 322 322 322 323 329 332 340 345 341 335 326 323 322 322 321 321 322 318 317 316 316 317 318 319 319 318 319 321 320 318 318 320 320 321 322
308 309 309 309 310 310 313 314 314 316 316 316 316 318 322 322 322 328 334 334 339 341 344 341 337 327 326 324 323 321 322 320 320 319 318 318 320 321 320 319 320 322 321 319 319 321 323 324 325
309 308 307 308 309 311 314 314 315 316 316 316 317 318 320 322 322 324 333 335 336 341 343 343 341 336 328 323 322 321 321 321 321 322 321 320 321 324 322 322 322 322 322 322 323 324 327 330 330
308 305 306 307 309 309 312 314 315 313 314 315 315 316 317 319 321 323 323 335 338 341 344 345 345 343 339 335 331 330 330 336 338 332 326 328 334 333 334 332 333 333 332 330 328 327 330 331 332
306 307 308 308 308 309 311 310 310 310 311 311 311 312 314 314 316 321 323 326 334 339 342 345 348 346 343 341 338 336 337 340 341 340 340 339 340 341 341 341 341 340 339 336 333 331 331 333 333
310 309 309 310 310 309 309 310 310 310 311 311 310 311 311 312 313 314 317 322 327 337 339 341 344 347 345 344 344 343 342 341 342 343 342 342 342 343 343 343 343 342 340 338 336 334 332 333 334
309 310 309 309 310 309 308 310 310 309 309 308 309 310 310 311 312 313 315 317 320 325 334 342 341 343 341 341 341 345 344 344 344 345 346 345 345 345 345 346 346 343 341 340 340 335 334 334 334
308 308 310 309 311 311 310 310 310 309 309 309 308 309 309 310 311 312 313 315 317 320 324 329 331 336 338 337 340 341 343 345 345 346 348 348 348 348 349 348 346 344 342 340 339 337 335 335 335
311 312 313 312 312 310 309 310 309 309 309 309 309 308 308 308 309 310 311 312 314 315 318 323 327 329 332 336 340 343 345 345 346 346 344 343 339 343 345 345 344 341 343 342 341 338 337 335 336
311 312 313 312 311 311 310 311 309 309 309 309 308 308 307 307 308 308 308 309 310 312 314 316 322 327 331 335 341 344 343 344 344 343 341 340 340 340 343 343 339 339 343 343 343 341 339 337 335
310 312 311 311 310 309 310 309 308 308 308 308 307 310 313 312 311 311 312 313 314 314 313 314 317 325 330 335 342 343 343 341 342 340 339 339 338 340 338 338 339 342 344 346 344 342 341 339 337
311 310 307 307 308 310 309 309 308 307 308 308 312 314 313 312 312 312 312 314 315 316 317 317 315 320 328 332 335 342 341 339 339 335 335 332 333 333 334 340 343 345 347 346 344 345 343 341 339
307 306 308 308 307 310 308 310 310 309 310 313 313 313 312 311 310 310 311 313 315 316 316 316 315 319 328 333 336 339 339 337 337 335 331 331 334 336 341 344 346 347 347 346 345 344 344 340 338
309 307 308 311 311 308 308 310 310 312 313 313 314 312 312 311 308 308 310 311 314 315 316 315 315 318 327 333 334 336 336 335 334 333 331 331 331 335 339 347 348 347 346 345 344 344 342 339 337
309 310 307 309 309 309 309 310 311 311 313 313 312 311 310 309 309 309 309 311 313 315 316 313 321 317 321 331 333 334 335 334 332 331 331 331 334 337 345 348 347 346 345 343 343 341 341 340 338
307 307 308 307 313 314 310 312 312 310 310 313 312 310 309 309 308 309 310 311 313 316 314 320 326 323 319 327 331 331 331 331 332 332 333 335 337 343 347 347 346 345 343 343 341 340 341 340 337
308 310 311 308 310 309 310 311 310 312 313 313 311 310 309 308 309 310 310 311 313 315 314 318 321 331 318 324 330 330 331 331 332 334 336 338 342 345 346 346 344 342 342 342 341 341 340 338 338
309 309 310 305 306 314 312 312 310 309 308 310 310 311 310 309 309 310 311 311 313 311 314 315 318 331 331 319 323 326 328 333 335 337 338 340 344 346 346 344 342 341 341 342 341 339 338 337 336

GFSSGP_925_thetae_060.txt.gz
Theta_e
322 318 319 319 316 312 314 315 316 318 317 318 317 319 322 322 340 340 338 334 325 323 327 332 336 340 339 336 334 333 332 333 332 330 330 330 330 330 329 326 326 322 319 316 315 314 313 312 311
321 320 318 313 315 315 312 314 317 317 317 316 316 317 318 319 321 331 337 331 325 321 325 329 333 334 335 332 332 331 332 331 331 331 330 329 328 328 326 324 321 317 314 314 313 313 313 314 315
324 323 316 318 313 314 314 315 318 317 315 316 317 317 320 333 337 337 338 328 326 321 326 325 334 331 329 329 329 330 330 328 329 329 329 327 327 326 325 323 318 315 314 314 313 314 315 316 320
325 323 318 321 319 317 316 317 314 316 318 316 318 319 319 336 339 340 338 329 324 321 323 325 331 328 328 327 326 328 327 326 327 327 326 326 326 325 324 321 317 315 314 314 314 315 316 318 321
327 320 322 322 320 320 316 316 316 318 317 316 318 320 321 335 340 340 334 330 323 322 321 322 326 323 325 326 326 325 324 324 325 325 324 324 324 323 323 320 318 315 315 314 314 315 316 318 321
328 319 324 322 316 320 320 318 319 318 318 320 321 320 327 341 341 336 334 332 325 323 324 324 323 321 321 324 326 323 322 323 323 323 322 321 322 321 323 321 319 315 315 315 315 316 317 318 322
329 322 326 324 325 324 322 320 320 320 322 324 320 321 321 326 339 337 335 332 328 327 325 330 334 322 319 322 325 323 321 321 321 321 320 320 321 321 321 322 320 316 315 315 315 316 317 319 321
324 322 326 323 326 324 324 324 322 324 324 322 322 323 324 334 335 336 333 332 331 329 324 330 333 328 319 321 325 323 321 321 321 320 320 320 321 320 321 322 322 319 316 315 315 316 317 320 321
321 329 330 328 327 326 324 324 323 324 324 322 323 323 322 340 337 334 333 333 333 332 329 329 331 324 320 320 324 323 322 322 322 322 321 322 323 323 323 324 323 322 318 316 315 316 317 320 323
317 320 325 326 326 326 325 324 323 322 322 322 322 321 323 324 339 337 334 333 334 333 331 331 331 323 321 320 321 322 323 324 324 324 325 326 323 323 324 325 326 324 321 317 316 315 317 321 323
312 317 321 323 322 321 321 321 321 320 321 322 320 320 320 322 322 335 335 334 333 331 331 332 333 328 322 321 321 321 322 324 326 325 326 327 326 325 325 328 328 325 322 319 317 317 318 319 320
311 311 316 317 317 316 317 316 317 317 317 318 319 319 319 321 321 320 332 336 335 334 332 331 333 329 325 322 318 319 320 322 324 324 324 328 326 329 328 327 327 324 321 319 318 319 319 321 320
309 309 310 310 311 311 312 313 314 315 315 316 317 318 318 319 320 322 322 326 337 333 329 329 328 328 326 324 319 318 318 320 320 321 323 324 325 327 328 326 325 322 320 319 318 320 322 322 321
307 308 308 308 309 310 311 311 312 314 315 315 316 315 314 317 319 320 325 330 331 337 336 329 327 325 325 323 322 319 319 320 319 319 320 320 322 321 321 321 320 319 320 320 320 320 322 322 322
308 308 306 307 308 309 310 311 312 313 314 315 315 314 314 316 318 319 323 326 329 333 341 339 330 326 324 325 324 322 321 320 319 318 318 318 319 320 320 320 320 320 319 321 322 323 323 325 326
307 304 306 306 308 308 311 312 313 310 311 312 312 312 312 312 313 315 317 320 322 333 336 340 342 336 329 324 323 325 324 323 321 322 321 320 321 320 321 322 323 325 324 325 326 326 326 327 328
305 305 307 308 307 308 310 310 309 310 310 311 311 311 311 310 311 313 314 315 317 321 332 339 344 344 340 334 328 325 324 323 322 322 324 324 327 323 325 328 332 334 333 334 335 333 330 329 329
309 309 308 308 308 309 308 308 309 309 309 309 309 310 311 311 311 312 313 314 315 317 322 332 341 346 345 342 337 331 328 325 327 328 329 332 333 334 336 338 338 338 338 339 338 336 334 332 331
308 309 309 308 309 310 309 309 308 309 308 307 308 309 309 310 311 311 312 312 314 313 314 320 333 338 346 344 341 339 338 337 336 335 336 340 340 340 340 340 341 341 341 342 341 338 334 333 332
307 307 310 309 310 311 309 309 308 308 308 308 308 308 308 308 309 310 310 311 311 312 313 314 319 324 336 342 343 343 343 343 342 341 340 342 343 343 342 343 343 342 343 342 341 339 334 333 333
310 311 312 311 311 308 308 306 307 308 308 308 308 307 307 307 307 308 309 310 312 312 314 314 314 315 319 329 337 340 342 342 343 345 344 343 343 346 345 345 345 346 345 343 341 339 337 334 334
310 311 312 310 309 308 309 309 307 307 306 307 306 304 305 308 310 310 311 311 313 314 315 315 315 315 315 318 330 336 339 341 340 341 342 341 343 345 344 344 346 346 344 343 341 340 339 336 335
308 311 310 310 309 308 307 307 306 306 307 307 306 307 310 311 310 310 310 311 311 313 314 316 316 316 316 317 325 333 337 337 338 340 341 342 343 343 342 340 340 343 344 341 340 340 339 338 337
308 308 305 304 306 307 307 308 306 306 308 307 309 310 310 310 310 309 309 310 310 311 312 316 316 317 316 316 320 330 338 339 340 340 340 341 341 340 340 338 341 339 338 339 340 342 341 340 338
305 304 306 306 305 307 306 308 306 306 307 307 312 312 310 309 308 308 307 308 309 310 311 314 316 316 318 319 318 324 335 339 340 338 338 339 336 335 333 334 333 334 337 341 343 344 341 341 340
307 305 307 310 310 305 306 308 307 307 307 309 311 311 311 310 308 306 306 307 309 310 311 313 315 314 319 326 322 321 329 337 339 337 336 339 336 333 331 330 332 338 342 344 345 343 344 343 340
308 308 305 307 306 306 307 307 307 308 308 309 311 311 309 309 307 306 306 307 308 310 311 313 314 315 320 325 326 323 329 335 336 337 337 337 336 333 330 332 336 344 346 345 344 344 343 342 339
307 306 308 305 312 313 309 308 309 307 307 307 310 309 308 308 306 307 307 309 311 310 311 314 313 314 317 323 328 323 326 333 334 335 334 334 333 331 330 338 343 347 346 345 343 342 341 340 339
307 309 309 305 305 308 308 309 306 308 308 309 307 307 308 308 307 306 307 310 310 311 312 313 312 313 317 322 331 322 326 330 333 334 334 332 331 331 336 340 346 346 345 343 342 342 340 339 338
306 308 308 305 307 313 312 312 309 307 306 307 307 308 310 310 308 307 308 310 312 316 317 314 312 316 320 326 334 324 324 329 331 332 332 332 333 335 339 343 346 345 344 342 342 340 340 339 337

GFSSGP_925_thetae_063.txt.gz
Theta_e
323 317 319 322 321 321 321 321 319 322 320 321 320 321 323 324 329 331 340 340 335 335 345 337 343 342 340 337 339 346 349 350 349 343 340 334 332 333 334 332 330 329 325 323 321 319 316 314 311
322 320 319 321 320 320 320 319 321 320 321 320 321 321 322 325 323 326 336 338 333 333 334 350 339 343 340 336 334 336 340 340 336 329 327 326 328 330 329 326 326 323 320 317 315 314 313 313 315
323 323 323 324 321 318 319 319 320 320 320 319 321 323 323 327 334 328 339 333 333 339 340 349 338 343 340 336 333 330 329 329 327 324 324 324 325 325 324 324 322 318 316 315 314 314 315 316 319
325 326 323 323 320 320 319 321 320 320 321 319 321 326 325 336 334 342 340 334 329 338 340 337 337 341 340 336 332 329 328 327 325 324 324 323 323 323 323 322 319 315 315 315 314 315 316 318 322
325 326 320 323 320 321 319 320 320 321 321 322 324 327 327 328 338 339 338 334 333 338 340 338 335 337 338 334 332 330 328 327 324 323 322 322 322 322 322 322 318 316 315 315 315 316 317 319 322
328 327 328 323 319 320 321 321 322 322 322 325 328 327 328 333 339 338 336 334 334 339 340 344 334 336 336 332 332 330 328 327 323 321 322 322 322 322 322 321 319 316 315 315 314 316 317 319 321
327 328 326 327 326 325 324 322 323 324 327 327 327 325 328 327 338 336 335 334 336 339 340 346 344 342 337 332 331 331 331 328 323 322 322 322 322 321 323 321 320 316 315 316 316 316 317 317 320
329 328 326 326 325 326 325 326 326 326 326 326 325 328 328 326 338 337 335 335 336 338 338 344 347 346 348 344 331 331 332 333 328 326 325 323 322 323 324 324 322 318 316 316 316 316 317 318 319
325 327 326 327 326 325 326 326 325 325 325 325 325 325 324 323 338 337 336 335 335 336 339 341 344 346 347 346 341 330 330 331 330 330 329 330 337 337 335 329 325 322 318 316 316 316 319 320 322
322 322 324 325 326 326 326 325 325 324 325 325 324 323 322 321 326 335 337 336 334 333 336 340 343 346 347 346 347 341 338 341 341 343 342 344 345 345 343 340 328 326 323 320 318 317 320 325 332
317 319 322 325 325 325 325 322 322 322 324 325 321 321 320 321 324 327 335 336 335 333 334 338 341 343 344 343 344 345 345 347 347 343 340 345 342 334 341 342 339 335 330 334 331 333 332 332 332
314 315 318 320 322 320 323 317 319 319 321 319 318 318 320 320 322 323 327 333 336 334 333 335 334 336 339 341 342 340 340 343 342 337 332 339 333 330 339 341 341 340 338 337 334 333 333 334 333
312 313 312 313 313 315 315 318 318 317 315 315 317 317 318 319 320 323 324 324 332 337 334 332 333 330 331 336 338 336 337 337 339 331 329 331 331 332 337 339 338 334 336 333 333 332 333 333 333
310 311 311 311 312 312 313 315 315 316 315 315 317 317 318 319 320 322 324 327 331 331 339 334 326 325 327 327 328 329 331 335 328 326 324 323 323 327 329 331 330 329 329 331 330 330 331 332 332
310 311 311 311 312 312 312 313 314 312 314 314 315 315 315 316 315 317 319 321 323 322 327 341 331 329 325 323 325 329 327 326 323 322 321 322 324 326 324 324 329 330 324 322 323 325 327 332 332
310 309 310 309 310 311 312 315 313 312 313 313 313 313 314 315 316 316 316 317 318 319 324 338 342 337 330 326 326 324 326 324 323 321 320 320 322 322 325 324 325 324 326 325 323 329 332 333 333
310 309 310 312 312 312 312 312 312 312 312 313 313 313 313 315 316 316 316 316 315 315 316 321 332 343 341 333 329 327 327 325 324 322 320 320 321 322 323 328 329 324 327 326 330 332 333 335 335
312 311 311 312 312 313 312 312 312 312 311 312 313 313 313 314 315 314 315 315 313 312 312 314 322 327 337 342 336 334 332 329 325 323 323 324 323 323 324 328 328 325 330 334 335 335 336 337 338
311 311 311 311 311 312 312 312 311 312 312 312 312 313 314 313 315 313 313 315 315 313 313 314 315 328 346 345 344 341 338 334 331 327 325 328 326 326 328 336 329 330 336 338 337 338 338 338 337
310 310 311 313 312 311 311 311 311 311 312 312 312 312 313 312 312 312 313 315 317 317 314 314 315 315 328 341 345 345 345 342 339 337 334 331 330 331 335 338 337 337 339 339 339 339 339 340 338
311 312 313 311 311 311 311 309 311 310 310 311 312 312 311 311 311 315 316 315 316 316 316 315 315 315 315 319 335 343 345 345 346 345 344 339 337 335 339 341 341 341 340 342 341 340 341 341 339
312 313 312 311 311 310 310 307 310 310 310 311 312 314 314 313 315 316 316 314 314 314 314 312 313 316 317 317 324 333 337 341 343 346 347 344 342 342 342 342 343 342 342 343 343 341 341 341 342
311 312 312 311 311 311 309 310 310 310 310 312 311 313 315 315 315 315 315 313 313 314 314 315 312 314 316 317 317 326 334 335 339 342 344 344 343 342 344 343 345 345 344 345 343 341 340 340 342
311 311 309 309 311 310 309 310 310 310 311 312 310 311 313 316 315 315 314 313 313 314 314 315 316 314 317 317 316 321 327 333 336 338 340 342 342 346 343 345 346 344 343 343 342 342 340 341 342
310 311 311 310 309 308 310 310 310 310 311 311 310 311 313 315 315 314 314 314 313 314 315 315 315 317 319 317 317 319 321 322 335 338 338 339 340 342 343 343 343 342 343 341 339 341 342 342 342
311 311 312 311 309 308 309 310 310 310 310 311 311 313 314 313 314 314 313 313 314 315 315 315 316 317 318 318 320 324 328 329 333 336 339 338 338 340 340 340 340 339 338 333 340 342 343 343 341
311 312 310 311 311 312 310 310 310 310 311 311 312 314 313 313 315 314 313 312 313 317 317 317 317 317 318 318 320 323 326 330 330 334 339 339 338 339 338 337 335 339 331 338 343 345 345 343 341
311 310 312 313 313 312 310 310 310 310 310 311 313 312 312 313 315 316 314 313 314 316 317 319 319 319 318 319 321 323 326 331 332 332 337 337 338 337 340 336 335 334 336 345 345 346 346 345 341
311 312 313 313 314 313 312 310 311 311 311 312 311 312 312 314 315 316 314 313 316 316 317 319 322 322 321 322 322 324 327 330 333 334 336 337 339 339 340 337 341 341 346 347 347 346 345 343 340
310 312 313 316 315 315 315 313 311 311 311 311 312 312 312 314 314 314 315 316 317 316 315 316 319 322 325 325 324 325 330 332 332 333 334 337 339 339 339 341 343 345 347 347 346 344 342 340 339

GFSSGP_925_thetae_069.txt.gz
Theta_e
326 327 320 324 328 327 332 333 330 327 327 328 328 328 331 332 332 335 339 340 338 346 347 344 337 339 339 347 348 348 345 345 345 344 343 342 340 336 336 335 338 338 335 332 327 323 320 318 315
325 326 323 325 327 331 331 332 328 329 327 327 327 327 326 329 332 336 340 341 337 347 348 346 336 338 338 346 349 348 346 347 347 346 345 343 337 334 334 333 333 332 330 326 322 318 316 313 311
327 324 326 327 326 329 332 328 328 328 325 325 326 327 329 331 335 337 340 343 339 346 349 347 337 338 337 344 349 348 347 348 348 347 346 341 334 330 331 330 330 326 323 320 318 315 313 313 315
327 328 325 327 328 329 328 328 326 326 325 325 326 328 329 332 333 336 341 344 342 344 348 349 338 336 337 338 347 349 348 348 349 348 345 338 331 328 328 326 326 321 318 316 315 314 315 317 319
326 329 330 329 328 328 326 324 327 326 326 325 325 327 331 332 332 337 343 344 344 342 345 351 340 334 337 336 344 347 349 349 349 348 343 334 331 329 327 325 323 319 317 316 315 316 318 319 321
330 329 331 332 329 328 325 324 323 328 326 325 325 327 331 332 330 336 344 344 343 341 344 355 341 336 337 335 338 345 348 349 350 348 343 335 330 330 327 325 322 317 316 317 318 318 319 320 322
328 331 330 329 330 330 327 324 323 324 327 327 327 329 332 332 328 334 343 343 342 340 343 355 348 344 338 337 336 342 347 349 350 348 343 337 332 329 326 325 322 318 318 321 322 320 319 320 321
326 329 330 329 330 330 329 327 326 324 326 328 328 329 332 330 327 331 339 342 341 339 342 352 348 347 347 346 338 338 346 349 348 344 339 335 332 329 327 326 325 320 318 319 318 318 318 320 321
323 326 328 329 328 329 329 329 327 327 327 329 328 328 330 327 327 329 334 342 340 339 341 347 346 345 345 344 346 336 337 339 339 338 333 332 339 338 340 333 336 324 319 319 319 320 318 319 321
323 324 324 325 327 328 327 329 329 328 327 327 328 328 328 327 327 328 330 336 340 340 340 342 345 344 344 342 344 345 344 343 343 342 344 341 339 339 340 339 334 335 327 321 320 322 322 325 328
322 323 323 323 324 326 327 327 329 329 329 326 327 328 327 326 327 327 327 332 341 340 341 340 345 345 344 341 342 344 341 342 343 343 343 344 340 339 342 341 342 341 338 335 333 334 334 332 331
321 322 323 323 323 323 325 326 328 329 329 328 325 327 326 326 327 326 326 328 332 340 338 339 344 345 345 342 341 342 339 342 342 343 346 347 344 342 343 343 342 344 340 340 336 338 337 337 335
319 320 321 321 321 322 323 325 327 328 328 327 326 324 326 326 324 324 325 327 330 333 340 337 340 346 348 348 342 341 342 341 341 343 346 347 346 344 346 345 342 340 341 339 341 338 337 337 337
317 317 318 319 320 319 321 322 323 325 326 326 323 324 325 328 323 322 323 326 330 333 336 340 339 341 346 349 350 345 346 341 342 343 345 348 347 346 345 345 342 340 338 337 337 337 337 337 337
316 316 317 317 318 319 319 319 319 320 321 323 323 323 325 328 326 322 322 324 327 329 332 335 340 339 346 349 348 348 345 345 343 343 344 347 348 346 345 343 342 341 339 338 338 338 337 337 337
316 316 316 317 317 317 317 318 319 320 320 321 321 322 323 327 328 323 321 322 325 328 329 332 339 341 344 345 346 346 343 342 341 342 342 344 348 346 346 343 341 340 338 338 337 337 338 337 338
316 315 316 316 317 318 318 318 318 319 320 320 320 321 322 325 327 322 321 321 323 325 328 329 336 340 345 345 345 344 342 339 338 338 338 340 344 347 345 343 339 339 339 336 334 336 336 339 339
316 317 316 316 317 317 317 317 318 319 319 319 320 320 320 324 324 321 320 320 322 324 327 328 330 337 343 347 345 345 342 342 339 337 337 336 340 343 344 341 339 339 338 335 336 336 337 340 341
315 316 318 318 316 317 318 318 318 319 319 319 319 319 320 322 322 321 320 319 321 325 326 328 329 330 335 344 346 347 346 342 337 337 336 336 338 338 341 340 338 338 336 339 337 335 342 343 344
316 316 316 316 316 316 317 317 317 318 318 319 319 319 319 319 319 320 319 319 322 323 324 325 327 329 329 333 347 345 349 348 345 340 337 337 337 339 340 341 338 339 340 341 339 342 343 344 347
314 315 316 316 317 317 317 317 317 317 317 317 318 318 318 319 318 319 319 320 320 321 322 322 325 327 330 331 328 332 337 347 351 348 344 335 342 341 341 339 340 339 342 342 341 347 347 344 347
315 315 315 315 316 317 317 317 318 317 317 316 317 317 318 318 318 318 319 319 319 319 320 322 323 326 322 330 329 328 334 339 340 345 351 348 342 344 341 342 342 342 343 342 347 348 349 350 347
314 315 315 316 317 317 316 316 316 317 317 316 316 317 318 320 319 319 318 318 318 318 319 321 324 326 326 326 329 330 329 328 330 336 344 343 342 345 342 338 334 345 346 346 347 351 352 351 350
314 314 315 315 315 316 316 316 316 317 316 316 317 317 317 317 319 319 318 318 317 317 318 321 323 324 326 327 328 330 332 332 333 332 336 336 344 348 348 335 340 340 350 349 353 352 354 352 351
314 315 317 317 317 318 317 316 316 316 316 316 317 315 315 316 318 319 318 318 318 317 319 320 321 323 324 325 326 327 329 330 333 334 332 332 335 338 350 354 353 353 353 355 354 354 355 355 352
316 317 317 321 321 320 317 316 316 315 315 314 314 314 316 317 318 318 318 319 318 318 318 319 321 323 325 325 326 326 327 327 328 329 331 331 332 333 335 353 353 355 355 356 355 355 355 354 352
315 318 317 318 319 318 318 319 317 316 315 314 314 315 318 317 317 317 317 317 319 319 319 320 321 321 321 324 327 328 328 328 329 330 332 333 334 334 331 342 352 353 354 356 356 355 354 352 352
316 316 319 318 318 318 317 317 317 317 316 314 316 317 317 317 317 317 316 317 317 318 318 319 320 320 320 320 323 326 328 329 329 330 333 334 336 338 342 342 344 351 352 355 356 354 353 351 349
316 316 317 318 324 324 321 318 317 316 316 316 316 316 316 317 317 318 318 317 316 316 317 318 319 320 320 320 320 322 325 328 330 331 332 334 336 340 341 343 345 348 351 355 356 353 349 350 351
317 320 321 325 322 320 318 318 316 316 316 316 316 316 317 317 318 318 318 317 317 317 316 316 316 318 319 319 319 319 321 324 327 331 333 335 337 338 340 341 343 346 350 353 354 351 347 351 351

GFSSGP_925_thetae_072.txt.gz
Theta_e
321 327 327 323 326 328 330 333 334 330 329 329 329 330 332 331 333 345 342 339 351 348 338 342 342 341 344 348 348 345 341 340 341 341 341 340 336 337 339 339 339 336 334 332 327 325 322 320 317
321 327 326 325 326 329 331 332 333 331 328 327 327 328 328 333 336 339 344 341 351 348 336 343 342 338 339 344 348 346 343 342 342 343 342 340 336 336 334 333 333 331 329 323 321 319 317 314 312
325 328 326 328 327 329 331 331 329 327 326 326 327 327 328 335 335 336 339 343 351 350 341 346 340 335 336 341 348 348 344 345 344 344 343 339 334 334 332 331 330 327 323 320 317 315 314 314 315
325 328 328 327 328 330 329 330 328 327 326 326 326 327 329 332 333 336 340 343 345 351 348 348 339 336 335 336 346 348 346 346 346 345 344 338 334 332 330 329 328 323 320 318 316 314 315 317 318
324 327 330 330 328 327 328 329 326 327 327 326 326 326 331 332 331 334 342 343 344 348 348 349 338 337 334 334 342 348 348 348 348 346 345 339 335 329 327 327 326 322 318 317 315 315 316 318 320
325 328 330 330 330 329 328 327 326 325 327 327 326 326 329 332 330 331 342 344 343 345 348 348 336 339 334 333 337 345 349 348 349 349 347 342 338 331 328 326 324 320 317 317 317 316 317 318 320
324 328 330 329 329 329 329 328 325 325 325 328 329 326 330 331 329 330 340 343 345 344 349 349 339 339 338 336 335 342 348 349 350 350 349 343 339 334 330 326 323 319 317 318 317 317 318 318 320
324 327 327 328 330 329 328 327 327 324 324 327 329 329 331 330 328 329 334 343 344 342 355 355 344 342 344 339 338 342 346 348 350 350 349 344 339 336 332 326 324 321 317 317 319 318 320 321 321
321 325 327 326 327 328 328 328 328 327 325 327 329 329 329 329 328 329 330 341 342 341 355 354 348 345 349 347 343 340 345 347 349 350 348 343 339 335 332 327 328 324 320 319 319 321 320 322 322
321 324 324 324 325 326 327 327 328 328 328 327 329 329 328 328 328 328 328 332 342 340 345 352 346 347 347 345 347 340 344 346 348 346 343 338 336 340 338 337 330 331 332 324 321 321 321 322 321
320 322 322 322 323 323 324 326 327 329 330 329 328 329 329 328 327 328 328 330 333 341 342 349 345 346 345 343 345 343 346 344 343 342 341 338 339 339 341 340 340 338 335 332 329 325 322 322 329
320 320 321 322 322 322 323 324 324 326 328 329 328 328 328 328 328 326 326 326 332 339 340 348 346 345 344 343 345 347 344 345 344 343 342 346 339 340 342 342 342 343 343 339 334 337 338 337 336
319 320 321 322 322 322 322 322 323 323 326 328 329 327 327 327 329 324 323 324 330 332 337 342 348 347 345 345 344 346 342 343 343 345 342 344 349 343 342 345 343 347 344 342 340 339 339 339 338
317 318 319 320 320 320 321 321 321 323 325 326 328 329 326 327 327 325 323 324 331 333 334 339 346 348 350 347 350 351 344 341 343 344 345 346 346 347 344 345 346 342 344 342 341 341 339 339 338
317 317 317 317 318 318 319 319 319 321 323 324 325 327 326 326 324 328 323 324 328 330 331 332 341 342 345 346 345 348 349 346 343 344 346 346 345 346 348 347 346 343 341 339 338 338 338 338 339
316 317 317 317 317 318 318 318 319 320 321 321 321 322 324 325 325 327 323 324 327 329 329 331 338 343 340 342 342 348 348 345 345 345 346 348 347 347 348 348 345 343 342 340 339 338 337 337 337
316 315 317 317 317 317 318 318 318 319 320 321 322 322 322 323 325 326 325 324 324 327 329 332 333 343 342 343 339 336 347 347 345 343 344 346 350 348 344 349 345 344 342 341 340 339 337 338 340
316 316 316 317 318 318 318 318 318 319 319 321 321 321 322 322 323 326 325 324 324 327 329 329 332 336 346 343 344 342 340 342 342 341 340 342 343 349 349 347 349 345 342 341 339 337 335 340 339
317 317 316 317 318 319 318 318 318 319 319 319 320 322 323 323 323 325 323 322 322 325 328 329 331 325 340 350 348 347 346 343 343 344 339 339 340 346 347 348 342 344 341 340 339 336 334 337 337
316 317 317 317 317 318 318 317 318 318 319 320 321 322 322 322 323 326 325 322 322 324 327 326 331 330 329 344 347 344 343 347 345 343 340 338 340 337 339 342 342 338 338 340 337 341 341 340 341
315 315 316 316 316 317 317 317 317 318 318 319 320 322 322 322 322 324 325 323 322 324 324 324 327 330 330 331 339 344 344 346 347 349 346 343 338 338 340 339 338 341 341 340 341 342 341 341 347
315 315 315 316 316 316 317 319 320 320 321 320 320 320 320 320 322 323 323 322 322 321 322 324 326 325 326 323 330 332 334 337 338 336 342 351 348 342 337 339 340 341 339 344 342 341 340 344 347
315 315 315 316 317 318 317 317 317 319 318 318 319 318 320 319 320 321 320 320 320 319 320 322 325 327 327 329 323 326 332 332 330 336 337 340 345 347 339 341 341 337 339 338 340 342 343 346 348
315 315 315 315 316 318 317 318 319 318 319 319 320 318 318 318 320 320 321 319 319 318 318 321 323 325 327 328 328 320 326 329 331 332 336 340 344 346 347 344 342 340 341 342 342 342 344 347 347
315 315 315 317 318 320 318 320 321 319 319 318 319 318 319 318 318 321 321 320 320 319 320 320 321 324 325 326 327 328 328 329 330 329 327 330 332 336 345 344 341 340 341 341 340 334 342 350 346
319 318 317 318 319 317 319 326 321 321 317 317 318 319 318 316 317 319 320 320 319 319 320 319 322 323 324 325 326 327 326 328 329 329 330 329 329 331 332 341 348 345 344 342 342 348 352 354 352
320 320 317 321 320 319 319 321 320 320 319 316 316 315 315 317 320 318 318 318 319 319 320 320 321 321 322 323 326 327 327 328 328 327 327 329 332 334 335 333 332 348 355 355 354 353 356 356 357
320 319 323 323 326 323 319 317 319 319 321 319 316 315 317 320 318 318 318 319 318 318 319 319 319 321 321 321 321 324 328 330 330 330 331 331 330 330 332 334 338 346 355 356 356 358 357 357 357
318 321 318 319 323 322 321 319 319 319 319 319 316 316 317 319 317 317 318 318 318 318 317 319 321 321 321 321 321 321 322 324 327 329 332 334 333 335 337 338 338 337 345 350 355 356 356 356 356
316 316 320 324 324 322 323 322 319 318 317 320 316 316 317 317 317 318 318 318 318 318 318 318 318 318 317 319 320 320 322 321 322 325 327 331 335 336 339 338 341 342 345 347 349 353 357 356 355

GFSSGP_925_thetae_075.txt.gz
Theta_e
320 322 327 327 319 321 323 325 327 329 328 323 324 326 339 342 345 348 347 347 334 332 340 346 346 345 346 346 341 338 339 338 338 339 336 333 336 338 339 338 336 333 331 329 324 321 318 316 314
320 323 327 322 320 321 323 325 326 322 323 322 324 324 333 336 337 339 347 346 331 327 337 344 345 344 345 346 343 340 340 340 340 340 337 332 332 335 335 334 331 327 325 322 321 318 316 314 313
319 321 323 322 321 322 324 325 326 323 323 322 323 324 332 335 335 337 346 348 336 328 334 341 344 343 342 343 345 342 341 341 341 341 338 331 330 330 330 329 326 324 321 319 318 316 314 314 316
318 321 324 323 323 324 325 324 325 325 324 323 323 327 331 333 334 338 342 349 346 331 333 337 340 341 338 341 344 345 342 342 342 342 339 332 329 329 329 326 324 321 319 317 316 315 315 317 318
320 320 324 326 324 323 325 325 323 323 323 324 324 324 332 330 331 341 342 346 349 339 331 336 338 339 337 341 344 346 344 344 343 344 342 336 331 330 329 326 322 320 317 316 315 315 316 318 319
318 320 324 326 326 326 327 325 327 324 322 322 325 325 330 329 329 336 341 343 348 348 334 331 336 338 339 339 342 346 345 346 345 345 343 337 332 330 329 326 322 319 317 316 316 316 317 317 319
318 319 323 325 327 327 327 325 330 326 327 323 324 327 329 326 328 328 342 340 344 348 343 332 335 338 340 338 341 345 346 347 348 347 345 339 334 329 329 326 323 319 317 316 316 316 317 317 317
317 318 322 324 325 325 326 325 323 322 326 325 326 327 329 327 327 328 340 341 347 349 346 337 329 337 340 341 341 343 346 347 348 348 347 342 337 332 328 327 324 321 318 317 317 317 317 317 317
317 317 320 322 325 324 324 324 324 323 323 325 326 327 328 328 327 327 327 339 349 352 348 345 331 334 338 344 342 344 345 347 348 349 348 345 339 334 330 328 325 323 321 318 318 318 318 317 317
315 317 319 320 322 321 321 322 322 325 324 325 326 328 328 327 326 325 324 326 344 355 352 346 338 332 338 345 346 344 345 347 347 347 347 344 338 332 328 327 326 325 326 324 320 319 318 317 317
315 316 318 319 320 321 321 321 321 322 324 324 325 326 328 325 325 324 324 325 330 353 352 348 341 332 336 348 343 343 343 344 347 346 346 341 335 329 331 338 337 337 335 333 329 323 320 319 321
314 316 317 318 319 320 320 320 321 320 326 325 325 325 326 324 323 323 323 326 332 338 349 348 346 336 336 345 346 342 340 341 344 346 342 336 332 330 337 340 340 340 340 341 338 329 328 331 336
313 315 316 317 318 319 320 320 320 320 320 323 326 325 325 324 324 323 323 324 328 333 339 348 347 345 340 343 344 343 340 336 335 337 338 335 334 332 335 342 341 342 341 344 341 339 338 336 337
312 312 313 314 315 316 318 318 318 320 319 320 323 326 324 323 323 323 322 323 333 331 334 341 349 345 343 344 346 345 344 341 337 336 335 338 339 339 339 340 345 343 345 345 343 341 340 340 338
313 312 313 313 314 314 315 315 316 317 318 318 318 323 325 323 324 323 323 323 329 330 331 339 353 346 343 346 350 350 349 343 342 341 340 338 338 343 340 344 342 344 345 345 345 344 342 342 342
312 312 312 313 314 314 314 314 316 316 317 317 318 318 319 322 322 323 324 324 327 329 329 334 346 350 346 343 344 345 349 345 343 342 344 343 342 342 345 345 345 346 344 340 341 340 340 337 337
312 311 311 313 315 315 314 314 315 316 316 316 317 317 317 317 320 322 323 325 327 328 328 328 334 343 342 344 345 346 346 346 346 347 347 346 345 345 344 345 348 347 345 341 342 341 340 338 337
312 312 313 313 314 314 314 314 315 316 316 316 315 315 317 319 320 325 325 326 328 328 327 326 328 337 345 341 340 341 345 346 345 345 345 345 350 348 346 345 346 348 345 344 344 342 340 339 337
314 314 315 315 316 315 315 316 315 315 316 314 314 316 317 318 320 320 326 326 326 326 326 327 328 329 341 348 341 342 343 346 345 343 343 341 343 349 346 345 345 347 347 344 343 341 340 338 336
314 313 312 314 316 315 314 315 315 317 317 316 315 315 317 319 319 319 325 325 326 328 327 327 330 331 328 350 346 342 340 340 340 337 335 337 338 340 349 348 345 343 347 346 343 340 339 337 336
314 313 313 314 315 314 313 314 314 316 316 316 315 315 316 316 317 318 322 322 323 324 325 324 323 326 330 336 349 347 345 346 347 344 343 342 338 337 340 346 348 345 341 342 339 337 336 338 335
314 314 314 314 314 314 314 314 313 316 315 315 315 315 314 317 317 316 320 321 324 324 322 322 323 323 325 331 334 343 344 343 346 347 345 345 344 342 340 339 341 340 340 342 339 338 336 339 339
315 314 314 314 313 313 314 314 314 315 315 314 315 316 315 314 314 316 317 321 320 321 323 324 324 324 322 323 328 333 335 335 336 336 338 338 342 337 335 340 340 341 339 341 342 340 343 342 341
319 318 312 313 312 312 313 314 315 315 315 315 316 316 316 314 315 315 317 319 319 319 319 320 324 323 326 327 325 326 330 333 330 330 332 336 338 334 331 338 345 342 339 342 341 341 343 343 342
319 320 322 313 312 314 313 315 315 316 318 318 317 317 314 316 315 316 316 315 318 318 318 318 319 320 324 325 326 329 327 328 329 328 326 327 325 330 341 342 346 343 335 342 342 342 340 343 344
320 321 323 324 317 317 318 317 316 318 319 318 317 315 315 312 314 314 316 315 317 318 318 318 320 321 324 324 325 326 327 328 330 329 327 326 323 325 325 328 336 336 331 343 344 344 343 342 342
320 323 320 323 321 323 319 318 318 318 319 319 317 316 314 311 312 314 314 315 317 318 319 320 322 322 324 324 324 325 326 327 327 327 327 327 331 330 333 333 335 338 338 339 343 343 342 342 345
318 317 320 322 325 325 320 319 317 319 319 317 317 315 314 315 313 312 313 314 317 319 319 319 319 320 320 320 322 324 326 325 327 328 328 328 329 330 329 325 324 326 329 337 350 353 352 351 353
314 319 320 320 322 325 324 317 318 318 317 318 317 316 314 314 313 312 312 314 316 317 318 319 319 320 320 320 320 320 321 321 324 329 330 330 332 334 334 333 333 334 334 331 336 354 355 355 356
316 317 318 320 323 322 322 319 317 318 317 316 316 316 315 314 312 311 311 314 316 317 317 319 320 319 319 320 322 320 320 320 321 321 321 321 323 327 332 333 335 336 338 337 340 341 352 354 355